FW6455 Weather Reports


Display with metric or nautical units.
time (UTC)temp
F
wind
direction
speed
MPH
gust
MPH
rain 1hr
in
rain 24hr
in
rain mn
in
humidity
%
barometer
mb
20260506132039 56 0 0.0 5.0 0.00 0.00 0.00 79 1014.3
20260506131557 56 197 1.0 5.0 0.00 0.00 0.00 79 1014.1
20260506131039 57 79 1.0 5.0 0.00 0.00 0.00 79 1014.1
20260506130540 57 308 1.0 5.0 0.00 0.00 0.00 78 1014.1
20260506130056 57 34 1.0 8.0 0.00 0.00 0.00 78 1014.2
20260506125537 57 75 0.0 8.0 0.00 0.00 0.00 78 1014.2
20260506125039 57 0 0.0 3.0 0.00 0.00 0.00 78 1014.0
20260506124553 57 50 0.0 5.0 0.00 0.00 0.00 78 1013.9
20260506124039 57 320 1.0 5.0 0.00 0.00 0.00 78 1013.8
20260506123539 57 0 0.0 7.0 0.00 0.00 0.00 78 1013.7
20260506123053 57 314 0.0 7.0 0.00 0.00 0.00 78 1013.5
20260506122538 57 316 0.0 2.0 0.00 0.00 0.00 78 1013.5
20260506122039 57 0 0.0 1.0 0.00 0.00 0.00 77 1013.4
20260506121553 57 0 0.0 4.0 0.00 0.00 0.00 77 1013.4
20260506121039 57 0 0.0 4.0 0.00 0.00 0.00 77 1013.4
20260506120538 58 329 0.0 2.0 0.00 0.00 0.00 77 1013.4
20260506115537 58 295 0.0 3.0 0.00 0.00 0.00 76 1013.3
20260506115039 58 307 0.0 3.0 0.00 0.00 0.00 76 1013.2
20260506114555 58 334 0.0 3.0 0.00 0.00 0.00 76 1013.0
20260506114039 58 311 0.0 3.0 0.00 0.00 0.00 76 1013.0
20260506113539 58 325 0.0 1.0 0.00 0.00 0.00 76 1012.8
20260506113050 59 316 0.0 1.0 0.00 0.00 0.00 76 1012.7
20260506112540 59 0 0.0 1.0 0.00 0.00 0.00 76 1012.6
20260506112039 59 308 0.0 1.0 0.00 0.00 0.00 76 1012.5
20260506111554 59 334 0.0 1.0 0.00 0.00 0.00 76 1012.5
20260506111039 59 0 0.0 1.0 0.00 0.00 0.00 77 1012.5
20260506110536 59 0 0.0 1.0 0.00 0.00 0.00 77 1012.3
20260506110055 59 0 0.0 1.0 0.00 0.00 0.00 78 1012.2
20260506105540 59 296 0.0 1.0 0.00 0.00 0.00 78 1012.2
20260506105037 59 0 0.0 1.0 0.00 0.00 0.00 78 1012.1
20260506104556 60 316 0.0 1.0 0.00 0.00 0.00 79 1012.1
20260506104037 60 311 0.0 1.0 0.00 0.00 0.00 79 1011.9
20260506103540 60 0 0.0 2.0 0.00 0.00 0.00 79 1011.9
20260506103054 60 0 0.0 2.0 0.00 0.00 0.00 79 1011.9
20260506102540 60 0 0.0 2.0 0.00 0.00 0.00 78 1011.7
20260506102038 60 309 0.0 2.0 0.00 0.00 0.00 78 1011.7
20260506101553 60 0 0.0 2.0 0.00 0.00 0.00 78 1011.6
20260506101039 60 309 0.0 2.0 0.00 0.00 0.00 78 1011.7
20260506100539 61 305 0.0 2.0 0.00 0.00 0.00 77 1011.6
20260506100105 61 316 0.0 2.0 0.00 0.00 0.00 77 1011.4
20260506095541 61 297 0.0 1.0 0.00 0.00 0.00 76 1011.3
20260506095039 61 0 0.0 3.0 0.00 0.00 0.00 76 1011.4
20260506094551 62 0 0.0 3.0 0.00 0.00 0.00 76 1011.3
20260506094039 62 0 0.0 3.0 0.00 0.00 0.00 76 1011.1
20260506093536 62 305 0.0 1.0 0.00 0.00 0.00 76 1011.2
20260506093049 62 0 0.0 1.0 0.00 0.00 0.00 76 1011.3
20260506092538 62 285 0.0 1.0 0.00 0.00 0.00 76 1011.3
20260506092040 62 302 0.0 3.0 0.00 0.00 0.00 76 1011.3
20260506091553 62 0 0.0 3.0 0.00 0.00 0.00 76 1011.2
20260506091037 62 0 0.0 2.0 0.00 0.00 0.00 77 1011.1
20260506090539 62 0 0.0 2.0 0.00 0.00 0.00 77 1011.2
20260506090050 62 0 0.0 2.0 0.00 0.00 0.00 77 1011.2
20260506085537 62 300 0.0 2.0 0.00 0.00 0.00 77 1011.1
20260506085039 62 0 0.0 4.0 0.00 0.00 0.00 77 1011.0
20260506084553 62 310 0.0 4.0 0.00 0.00 0.00 77 1010.9
20260506084037 62 0 0.0 4.0 0.00 0.00 0.00 77 1010.8
20260506083539 62 0 0.0 2.0 0.00 0.00 0.00 77 1010.8
20260506083047 63 307 0.0 3.0 0.00 0.00 0.00 77 1010.6
20260506082542 63 0 0.0 3.0 0.00 0.00 0.00 77 1010.6
20260506082040 63 318 0.0 6.0 0.00 0.00 0.00 77 1010.5
20260506081555 63 0 0.0 6.0 0.00 0.00 0.00 77 1010.4
20260506081039 63 51 0.0 2.0 0.00 0.00 0.00 77 1010.5
20260506080539 63 49 0.0 2.0 0.00 0.00 0.00 77 1010.4
20260506073051 64 0 0.0 2.0 0.00 0.00 0.00 76 1010.8
20260506072538 64 309 0.0 3.0 0.00 0.00 0.00 76 1010.8
20260506072038 64 297 0.0 4.0 0.00 0.00 0.00 76 1010.7
20260506071557 64 69 0.0 4.0 0.00 0.00 0.00 77 1010.7
20260506071037 64 0 0.0 6.0 0.00 0.00 0.00 76 1010.7
20260506070539 64 0 0.0 6.0 0.00 0.00 0.00 76 1010.7
20260506062039 66 0 0.0 2.0 0.00 0.00 0.00 76 1010.4
20260506061548 66 302 0.0 2.0 0.00 0.00 0.00 76 1010.5
20260506061039 67 0 0.0 2.0 0.00 0.00 0.00 76 1010.4
20260506060539 67 0 0.0 2.0 0.00 0.00 0.00 76 1010.4
20260506051039 69 349 0.0 5.0 0.00 0.00 0.00 74 1010.2
20260506050543 70 288 0.0 2.0 0.00 0.00 0.00 74 1010.1
20260506045039 71 266 0.0 1.0 0.00 0.00 0.00 74 1010.0
20260506044549 71 0 0.0 1.0 0.00 0.00 0.00 74 1010.1
20260506044037 72 300 0.0 1.0 0.00 0.00 0.00 74 1010.0
20260506043538 72 0 0.0 1.0 0.00 0.00 0.00 74 1010.0
20260506043047 72 0 0.0 1.0 0.00 0.00 0.00 74 1009.9
20260506042537 72 289 0.0 1.0 0.00 0.00 0.00 74 1009.8
20260506042039 72 0 0.0 1.0 0.00 0.00 0.00 74 1009.7
20260506041551 72 0 0.0 1.0 0.00 0.00 0.00 74 1009.8
20260506041038 72 0 0.0 1.0 0.00 0.00 0.00 74 1009.7
20260506040538 72 0 0.0 2.0 0.00 0.00 0.00 73 1009.6
20260506040108 73 0 0.0 2.0 0.00 0.00 0.00 73 1009.6
20260506035539 73 0 0.0 2.0 0.00 0.00 0.00 73 1009.5
20260506035039 73 284 0.0 2.0 0.00 0.00 0.00 72 1009.4
20260506034551 73 0 0.0 2.0 0.00 0.00 0.00 72 1009.3
20260506034038 73 0 0.0 1.0 0.00 0.00 0.00 72 1009.2
20260506033538 74 0 0.0 2.0 0.00 0.00 0.00 72 1009.0
20260506033049 74 0 0.0 3.0 0.00 0.00 0.00 71 1009.0
20260506032539 74 311 0.0 3.0 0.00 0.00 0.00 70 1009.0
20260506032043 75 305 0.0 3.0 0.00 0.00 0.00 70 1009.1
20260506031547 75 0 0.0 3.0 0.00 0.00 0.00 70 1009.3
20260506031038 75 293 0.0 3.0 0.00 0.00 0.00 69 1009.2
20260506030539 75 0 0.0 3.0 0.00 0.00 0.00 70 1008.8
20260506025539 76 0 0.0 1.0 0.00 0.00 0.00 69 1008.6
20260506025039 76 0 0.0 2.0 0.00 0.00 0.00 69 1008.5
20260506024554 76 315 0.0 2.0 0.00 0.00 0.00 69 1008.3
20260506024039 77 0 0.0 1.0 0.00 0.00 0.00 70 1008.1
20260506023539 77 0 0.0 1.0 0.00 0.00 0.00 70 1007.8
20260506023049 78 0 0.0 1.0 0.00 0.00 0.00 70 1007.7
20260506022539 78 311 0.0 1.0 0.00 0.00 0.00 69 1007.5
20260506022039 79 0 0.0 1.0 0.00 0.00 0.00 70 1007.4
20260506021559 79 323 0.0 0.0 0.00 0.00 0.00 78 1007.3
20260506021039 79 0 0.0 0.0 0.00 0.00 0.00 80 1007.2
20260506020538 79 0 0.0 0.0 0.00 0.00 0.00 79 1007.2
20260506020047 79 0 0.0 0.0 0.00 0.00 0.00 79 1007.1
20260506015539 79 0 0.0 0.0 0.00 0.00 0.00 79 1007.1
20260506015042 79 0 0.0 0.0 0.00 0.00 0.00 79 1007.2
20260506014559 79 0 0.0 0.0 0.00 0.00 0.00 79 1007.0
20260506014038 79 0 0.0 0.0 0.00 0.00 0.00 79 1006.9
20260506013538 79 0 0.0 0.0 0.00 0.00 0.00 79 1006.7
20260506013056 79 0 0.0 0.0 0.00 0.00 0.00 79 1006.9
20260506012539 79 0 0.0 0.0 0.00 0.00 0.00 79 1006.9
20260506012039 79 0 0.0 0.0 0.00 0.00 0.00 79 1006.8
20260506011553 80 0 0.0 0.0 0.00 0.00 0.00 79 1006.6
20260506011038 80 0 0.0 0.0 0.00 0.00 0.00 79 1006.3
20260506010539 80 0 0.0 1.0 0.00 0.00 0.00 79 1006.4
20260506010103 80 0 0.0 1.0 0.00 0.00 0.00 79 1006.4
20260506005539 80 0 0.0 1.0 0.00 0.00 0.00 78 1006.4
20260506005039 80 207 0.0 1.0 0.00 0.00 0.00 78 1006.2
20260506004552 80 0 0.0 1.0 0.00 0.00 0.00 78 1006.1
20260506004040 80 187 0.0 1.0 0.00 0.00 0.00 78 1006.0
20260506003539 81 0 0.0 1.0 0.00 0.00 0.00 78 1006.0
20260506003048 81 0 0.0 1.0 0.00 0.00 0.00 78 1006.0
20260506002537 81 0 0.0 2.0 0.00 0.00 0.00 77 1006.0
20260506002039 81 194 0.0 2.0 0.00 0.00 0.00 77 1005.9
20260506001553 81 0 0.0 2.0 0.00 0.00 0.00 77 1005.7
20260506001040 81 200 1.0 3.0 0.00 0.00 0.00 76 1005.7
20260506000539 81 191 0.0 4.0 0.00 0.00 0.00 76 1005.7
20260506000049 81 213 1.0 4.0 0.00 0.00 0.00 76 1005.6
20260505235538 81 181 1.0 4.0 0.00 0.00 0.00 76 1005.5
20260505235039 82 187 0.0 2.0 0.00 0.00 0.00 76 1005.7
20260505234554 82 187 0.0 3.0 0.00 0.00 0.00 76 1005.7
20260505234039 82 168 0.0 3.0 0.00 0.00 0.00 75 1005.8
20260505233539 82 0 1.0 2.0 0.00 0.00 0.00 75 1005.8
20260505233107 83 156 1.0 4.0 0.00 0.00 0.00 75 1005.7
20260505232538 83 229 0.0 4.0 0.00 0.00 0.00 75 1005.7
20260505232040 83 179 1.0 4.0 0.00 0.00 0.00 74 1005.6
20260505231553 83 184 1.0 3.0 0.00 0.00 0.00 74 1005.7
20260505231039 83 208 0.0 3.0 0.00 0.00 0.00 75 1005.6
20260505230539 83 195 1.0 4.0 0.00 0.00 0.00 74 1005.5
20260505230054 83 0 1.0 4.0 0.00 0.00 0.00 74 1005.3
20260505225539 84 200 1.0 4.0 0.00 0.00 0.00 73 1005.3
20260505225037 84 265 1.0 4.0 0.00 0.00 0.00 73 1005.3
20260505224551 84 128 1.0 4.0 0.00 0.00 0.00 73 1005.3
20260505224039 84 143 0.0 3.0 0.00 0.00 0.00 73 1005.3
20260505223536 84 218 1.0 3.0 0.00 0.00 0.00 73 1005.1
20260505223055 85 206 0.0 3.0 0.00 0.00 0.00 72 1005.2
20260505222538 85 213 1.0 3.0 0.00 0.00 0.00 72 1005.2
20260505222038 85 210 0.0 2.0 0.00 0.00 0.00 71 1005.1
20260505221558 86 205 0.0 2.0 0.00 0.00 0.00 70 1005.1
20260505221041 86 0 1.0 2.0 0.00 0.00 0.00 69 1005.2
20260505220537 86 143 1.0 2.0 0.00 0.00 0.00 69 1005.2
20260505220049 86 153 0.0 3.0 0.00 0.00 0.00 69 1005.2
20260505215539 86 172 1.0 3.0 0.00 0.00 0.00 69 1005.2
20260505215039 87 174 1.0 3.0 0.00 0.00 0.00 68 1005.1
20260505214552 87 219 0.0 3.0 0.00 0.00 0.00 69 1005.1
20260505214041 87 234 1.0 3.0 0.00 0.00 0.00 69 1005.2
20260505213542 87 240 0.0 3.0 0.00 0.00 0.00 69 1005.4
20260505213049 87 0 1.0 3.0 0.00 0.00 0.00 69 1005.3
20260505212537 87 163 0.0 2.0 0.00 0.00 0.00 70 1005.3
20260505212038 87 198 1.0 2.0 0.00 0.00 0.00 70 1005.3
20260505211547 87 243 0.0 2.0 0.00 0.00 0.00 70 1005.5
20260505211039 87 164 0.0 2.0 0.00 0.00 0.00 69 1005.5
20260505210538 86 157 1.0 3.0 0.00 0.00 0.00 69 1005.4
20260505210048 86 221 0.0 3.0 0.00 0.00 0.00 70 1005.4
20260505205541 85 210 2.0 3.0 0.00 0.00 0.00 69 1005.4
20260505205038 86 198 1.0 3.0 0.00 0.00 0.00 68 1005.5
20260505204551 86 188 1.0 3.0 0.00 0.00 0.00 69 1005.7
20260505204038 86 167 0.0 3.0 0.00 0.00 0.00 68 1005.8
20260505203539 86 194 1.0 4.0 0.00 0.00 0.00 69 1005.7
20260505203056 86 153 1.0 4.0 0.00 0.00 0.00 68 1005.8
20260505202538 86 0 1.0 4.0 0.00 0.00 0.00 69 1005.8
20260505202038 86 205 0.0 4.0 0.00 0.00 0.00 70 1005.9
20260505201554 86 254 1.0 4.0 0.00 0.00 0.00 69 1006.0
20260505201039 86 188 1.0 4.0 0.00 0.00 0.00 71 1006.0
20260505200539 85 217 1.0 3.0 0.00 0.00 0.00 70 1006.2
20260505200052 85 208 1.0 3.0 0.00 0.00 0.00 70 1006.1
20260505195540 85 217 1.0 6.0 0.00 0.00 0.00 70 1006.2
20260505195038 85 245 1.0 6.0 0.00 0.00 0.00 70 1006.0
20260505194558 85 221 2.0 6.0 0.00 0.00 0.00 69 1006.0
20260505194040 85 165 1.0 5.0 0.00 0.00 0.00 71 1006.1
20260505193538 84 246 1.0 5.0 0.00 0.00 0.00 70 1006.0
20260505193114 84 161 1.0 4.0 0.00 0.00 0.00 73 1006.2
20260505192538 84 156 2.0 4.0 0.00 0.00 0.00 71 1006.1
20260505192038 84 197 1.0 4.0 0.00 0.00 0.00 71 1006.2
20260505191547 84 218 0.0 4.0 0.00 0.00 0.00 72 1006.4
20260505191040 84 235 1.0 3.0 0.00 0.00 0.00 72 1006.5
20260505190539 83 250 1.0 4.0 0.00 0.00 0.00 72 1006.5
20260505190053 83 200 1.0 4.0 0.00 0.00 0.00 72 1006.4
20260505185539 83 205 1.0 4.0 0.00 0.00 0.00 73 1006.5
20260505185038 83 163 1.0 4.0 0.00 0.00 0.00 73 1006.7
20260505184555 83 206 2.0 7.0 0.00 0.00 0.00 72 1006.8
20260505184043 83 201 2.0 7.0 0.00 0.00 0.00 72 1006.7
20260505183539 83 226 1.0 3.0 0.00 0.00 0.00 72 1006.8
20260505183047 82 245 1.0 4.0 0.00 0.00 0.00 73 1006.8
20260505182538 82 153 1.0 4.0 0.00 0.00 0.00 74 1006.8
20260505182038 82 242 2.0 4.0 0.00 0.00 0.00 73 1006.8
20260505181550 82 159 2.0 4.0 0.00 0.00 0.00 73 1006.7
20260505181038 82 167 2.0 4.0 0.00 0.00 0.00 74 1006.8
20260505180538 82 227 1.0 3.0 0.00 0.00 0.00 74 1006.8
20260505180055 82 211 0.0 4.0 0.00 0.00 0.00 75 1006.8
20260505175538 81 198 1.0 4.0 0.00 0.00 0.00 74 1006.9
20260505175039 81 165 0.0 3.0 0.00 0.00 0.00 74 1006.9
20260505174552 81 211 1.0 5.0 0.00 0.00 0.00 74 1007.0
20260505174037 81 226 1.0 5.0 0.00 0.00 0.00 74 1007.2
20260505173538 81 253 0.0 3.0 0.00 0.00 0.00 75 1007.1
20260505173047 81 166 2.0 3.0 0.00 0.00 0.00 74 1007.0
20260505172538 81 215 1.0 3.0 0.00 0.00 0.00 74 1006.9
20260505172039 81 0 0.0 5.0 0.00 0.00 0.00 75 1006.9
20260505171551 81 174 1.0 5.0 0.00 0.00 0.00 74 1007.0
20260505171039 81 167 1.0 7.0 0.00 0.00 0.00 76 1006.9
20260505170538 80 229 1.0 7.0 0.00 0.00 0.00 75 1006.9
20260505170050 80 205 2.0 4.0 0.00 0.00 0.00 75 1006.8
20260505165538 80 159 1.0 6.0 0.00 0.00 0.00 76 1006.8
20260505165038 80 197 2.0 6.0 0.00 0.00 0.00 75 1006.6
20260505164550 80 213 2.0 5.0 0.00 0.00 0.00 74 1006.7
20260505164039 80 243 1.0 4.0 0.00 0.00 0.00 76 1006.7
20260505163538 79 221 1.0 5.0 0.00 0.00 0.00 77 1006.8
20260505163052 79 235 2.0 6.0 0.00 0.00 0.00 76 1006.8
20260505162539 79 156 2.0 6.0 0.00 0.00 0.00 76 1007.0
20260505162039 78 205 2.0 6.0 0.00 0.00 0.00 77 1006.9
20260505161548 78 158 1.0 5.0 0.00 0.00 0.00 78 1007.0
20260505161039 78 264 2.0 6.0 0.00 0.00 0.00 78 1007.2
20260505160539 77 198 2.0 6.0 0.00 0.00 0.00 78 1007.1
20260505153056 77 196 2.0 6.0 0.00 0.00 0.00 78 1006.9
20260505152538 77 169 1.0 4.0 0.00 0.00 0.00 79 1006.8
20260505152037 77 165 1.0 4.0 0.00 0.00 0.00 79 1007.0
20260505151554 76 224 1.0 6.0 0.00 0.00 0.00 81 1007.0
20260505151039 76 206 2.0 6.0 0.00 0.00 0.00 80 1007.0
20260505150537 76 219 1.0 5.0 0.00 0.00 0.00 80 1007.1
20260505140537 73 219 1.0 3.0 0.00 0.00 0.00 85 1006.8